sat.trackr.live / text

‹ back to catalog

STARLINK-4187

NORAD 52850 · 2022-062W

PAYLOAD ACTIVE UNKNOWN

§ Identity

Operator
Country
US
Launch date
2022-06-17
Launch site
AFETR
Launch vehicle
Mass (kg)
RCS (m²)

Purposes: comms

External: N2YO · Heavens-Above · Gunter

§ Orbital elements

Epoch: 2026-09-19T12:41:59.139744Z

Period
94.01 min
Inclination
53.1596°
Eccentricity
0.0001432
Mean motion
15.31701866 rev/d
Perigee alt
469.8 km
Apogee alt
471.7 km
Semi-major
6,848.9 km
B*
4.3871e-6
RAAN
233.4072°
Arg perigee
101.7955°
Mean anomaly
258.3207°
Rev number
23,519

§ Raw data

STARLINK-41871 52850U 22062W   26262.52915671 -.00000229  00000+0  43871-5 0  99972 52850  53.1596 233.4072 0001432 101.7955 258.3207 15.31701866235195

JSON: /api/v1/satellites/52850 · /tle

For live sub-satellite position, see the globe view (requires WebGL).

§ Visibility from observer

Set your observer location to see the next 7 days of passes ≥ 10°. The values pass through the URL so the page stays shareable.

No JS? Fill the form by hand. The geolocation button needs JavaScript.